Location: Holyhead Bay
(53.3667°N, 4.6667°W)
Time: 19:33:03
(UTC+00:00)

Cosmos 2322 Rocket - Pass Details

Date: 24 November 2020
Orbit: 834 x 849 km, 71.0° (Epoch: 16 January)

Event Time Altitude Azimuth Distance (km) Brightness Sun altitude
Rises 18:29:57 0° 274° (W) 3,412 6.8 -20.1°
Reaches altitude 10° 18:33:14 10° 293° (WNW) 2,477 5.5 -20.6°
Maximum altitude 18:37:04 18° 336° (NNW) 1,960 4.3 -21.1°
Enters shadow 18:40:41 11° 17° (NNE) 2,420 4.4 -21.7°
